Flag for Norway Weather past 2 weeks in Stavanger, Norway

Now
64 °F

Clear.


Feels Like: 64 °F
Forecast: 64 / 71 °F
Wind: 1 mph from North

Location: Stavanger / Sola

Current Time: Jul 26, 2014 at 5:41:28 AM

Latest Report: Jul 26, 2014 at 4:50 AM


Visibility: 10 mi

Pressure: 30.09 "Hg

Humidity: 83%

Dew point: 59 °F

Location of StavangerLocation

Historic Weather in Stavanger — Graph

°F

Stavanger temperature yesterday

Maximum temperature yesterday: 81 °F (at 12:50 PM)
Minimum temperature yesterday: 63 °F (at 4:50 AM)
Average temperature yesterday: 74 °F

Past Weeks' High & Low Weather Summary

 TemperatureHumidityPressure
High84 °F (Jul 20, 3:20 PM)94% (Jul 13, 6:20 AM)30.30 "Hg (Jul 13, 6:20 AM)
Low55 °F (Jul 19, 4:50 AM)37% (Jul 20, 1:20 PM)29.65 "Hg (Jul 14, 12:50 AM)
Average68 °F70%30.04 "Hg
* Reported Jul 11 3:50 AM — Jul 26 3:50 AM, Stavanger, Weather by CustomWeather, © 2014

Note: Actual official high and low records may vary slightly from our data, if they occured in-between our weather recording intervals... More about our weather records

Advertising

Stavanger weather history for previous 24 hours

 ConditionsComfort  
Time TempWeatherWind HumidityBarometerVisibility
3:50 AM
Jul 26
66 °FClear.No wind83%30.09 "Hg10 mi
2:50 AM66 °FClear.1 mph78%30.09 "Hg10 mi
1:50 AM68 °FClear.1 mph73%30.12 "Hg10 mi
12:50 AM70 °FClear.5 mph73%30.12 "Hg10 mi
11:50 PM
Jul 25
72 °FClear.2 mph69%30.12 "Hg10 mi
11:20 PM70 °FClear.6 mph78%30.12 "Hg10 mi
10:50 PM73 °FSunny.1 mph74%30.12 "Hg10 mi
10:20 PM73 °FSunny.1 mph74%30.12 "Hg10 mi
9:50 PM73 °FSunny.3 mph74%30.12 "Hg10 mi
9:20 PM75 °FPassing clouds.5 mph69%30.12 "HgN/A
8:50 PM77 °FPassing clouds.5 mph65%30.12 "HgN/A
8:20 PM81 °FPassing clouds.3 mph54%30.12 "HgN/A
7:50 PM81 °FPassing clouds.3 mph54%30.12 "HgN/A
7:20 PM79 °FScattered clouds.6 mph58%30.12 "HgN/A
6:50 PM75 °FScattered clouds.7 mph65%30.12 "HgN/A
6:20 PM77 °FScattered showers. Scattered clouds.6 mph61%30.12 "HgN/A
5:50 PM77 °FScattered showers. Scattered clouds.7 mph57%30.15 "HgN/A
5:20 PM75 °FScattered clouds.9 mph61%30.15 "HgN/A
4:50 PM77 °FPassing clouds.10 mph57%30.15 "HgN/A
4:20 PM79 °FPassing clouds.12 mph54%30.15 "HgN/A
3:50 PM81 °FPassing clouds.14 mph48%30.15 "HgN/A
3:20 PM81 °FPassing clouds.10 mph45%30.15 "HgN/A
2:50 PM79 °FPassing clouds.10 mph48%30.15 "HgN/A
2:20 PM81 °FSunny.10 mph45%30.15 "Hg10 mi
1:50 PM81 °FSunny.9 mph48%30.18 "Hg10 mi
1:20 PM81 °FSunny.8 mph45%30.18 "Hg10 mi
12:50 PM81 °FSunny.7 mph48%30.18 "Hg10 mi
12:20 PM79 °FSunny.6 mph54%30.18 "Hg10 mi
11:50 AM77 °FSunny.8 mph57%30.18 "Hg10 mi
11:20 AM77 °FSunny.8 mph57%30.18 "Hg10 mi
10:50 AM75 °FSunny.6 mph57%30.18 "Hg10 mi
10:20 AM75 °FSunny.3 mph61%30.18 "Hg10 mi
9:50 AM73 °FSunny.5 mph69%30.18 "Hg10 mi
9:20 AM77 °FSunny.3 mph54%30.18 "Hg10 mi
8:50 AM75 °FSunny.2 mph61%30.18 "Hg10 mi
8:20 AM72 °FSunny.2 mph65%30.18 "Hg10 mi
7:50 AM68 °FSunny.1 mph69%30.18 "Hg10 mi
7:20 AM68 °FSunny.1 mph69%30.18 "Hg10 mi
6:50 AM63 °FSunny.1 mph88%30.18 "Hg10 mi
6:20 AM63 °FPassing clouds.5 mph83%30.18 "HgN/A
5:50 AM64 °FClear.2 mph78%30.15 "Hg10 mi
Weather by CustomWeather, © 2014

See weather overviewHow to use our weather pages